Regional Weather Roundup
Issued by NWS Charleston, SC

Home | Current Version | Previous Version | Text Only | Print | Product List | Glossary On
Versions: 1 2 3 4 5 6 7 8 9 10 11 12 13 14 15 16 17 18 19 20 21 22 23 24 25 26 27 28 29 30 31 32 33 34 35 36 37 38 39 40 41 42 43 44 45 46 47 48 49 50
000
ASUS42 KCHS 040612
RWRCHS

REGIONAL WEATHER ROUNDUP
NATIONAL WEATHER SERVICE CHARLESTON SC
200 AM EDT FRI SEP 04 2015

NOTE: "FAIR" INDICATES FEW OR NO CLOUDS BELOW 12,000 FEET WITH NO
SIGNIFICANT WEATHER AND/OR OBSTRUCTIONS TO VISIBILITY.

NOT ALL STATIONS ARE QUALITY CONTROLLED BY THE NATIONAL
WEATHER SERVICE. USE DATA WITH CAUTION...ESPECIALLY
DEWPOINT OBSERVATIONS.

SCZ027-030-031-034>040-042>050-040700-
...SOUTHEAST SOUTH CAROLINA...

CITY           SKY/WX    TMP DP  RH WIND       PRES   REMARKS
N CHARLESTON   MOCLDY    78  74  87 S3        29.92S
6HR MIN TEMP:  77; 6HR MAX TEMP:  80;

WATERFRONT PRK   N/A     80  77  90 CALM      29.90S
MOUNT PLEASANT FAIR      77  75  94 CALM      29.92S
JOHNS ISLAND   FAIR      77  75  94 CALM      29.92S
PINOPOLIS        N/A     81  75  83 CALM      29.83F
MONCKS CORNER  FAIR      77  73  88 CALM      29.93R
SUMMERVILLE    FAIR      75  75 100 CALM      29.93S
BEAUFORT MCAS  MOCLDY    79  76  90 CALM      29.92S
6HR MIN TEMP:  77; 6HR MAX TEMP:  82;

BEAUFORT ARPT  FAIR      79  77  94 CALM      29.92R
HILTON HEAD IS CLOUDY    79  77  94 CALM      29.93S
WALTERBORO     PTCLDY    77  73  88 CALM      29.93S
ALLENDALE      FAIR      75  75 100 CALM      29.92S

...SOUTHERN MIDLANDS AND PEE DEE...

CITY           SKY/WX    TMP DP  RH WIND       PRES   REMARKS
GEORGETOWN     NOT AVBL
KINGSTREE      NOT AVBL
ORANGEBURG     CLEAR     75  72  90 CALM      29.93S
6HR MIN TEMP:  74; 6HR MAX TEMP:  82;

BARNWELL       FAIR      75  73  94 CALM      29.94R FOG
AIKEN          FAIR      72  70  94 CALM      29.97S
MANNING        FAIR      73  73 100 CALM      29.93S
COLUMBIA       PTCLDY    75  71  87 CALM      29.92S
6HR MIN TEMP:  75; 6HR MAX TEMP:  86;

SUMTER         CLEAR     75  73  92 W2        29.91R
6HR MIN TEMP:  74; 6HR MAX TEMP:  83;

FLORENCE       CLEAR     74  71  91 CALM      29.92R
6HR MIN TEMP:  74; 6HR MAX TEMP:  84;

MYRTLE BEACH   PTCLDY    73  70  88 CALM      29.94R
N MYRTLE BEACH CLEAR     73  72  96 CALM      29.92R
6HR MIN TEMP:  72; 6HR MAX TEMP:  75;


$$

GAZ063-065-086>088-099>101-113>116-118-119-134>141-150-040700-
...SOUTHEAST GEORGIA...

CITY           SKY/WX    TMP DP  RH WIND       PRES   REMARKS
SAVANNAH ARPT  MOCLDY    79  76  90 CALM      29.93S
6HR MIN TEMP:  79; 6HR MAX TEMP:  83;

HUNTER AAF     CLOUDY    79  79 100 SW2       29.90S
6HR MIN TEMP:  78; 6HR MAX TEMP:  81;

FORT STEWART   PTCLDY    78  76  94 CALM      29.91S
6HR MIN TEMP:  78; 6HR MAX TEMP:  82; 6HR PCP: TRACE;

STATESBORO     PTCLDY    76  32  20 CALM      29.93S
SYLVANIA       NOT AVBL
CLAXTON        NOT AVBL

...CSRA...CENTRAL AND FAR SOUTHEAST GEORGIA...

CITY           SKY/WX    TMP DP  RH WIND       PRES   REMARKS
THOMSON        CLEAR     76  76 100 CALM      29.98S
AUGUSTA-BUSH   FOG       73  73 100 CALM      29.92S VSB 1
6HR MIN TEMP:  72; 6HR MAX TEMP:  81;

AUGUSTA-DANIEL PTCLDY    80  74  81 CALM      29.94S
SWAINSBORO     FAIR      73  72  94 CALM      29.94F
VIDALIA        CLEAR     75  73  94 SW3       29.94S
EASTMAN        FOG       74  74 100 CALM      29.97S VSB 3/4
HAZLEHURST     FAIR      77  77 100 CALM      29.93F
ALMA           CLEAR     75  75 100 CALM      29.93F FOG
6HR MIN TEMP:  75; 6HR MAX TEMP:  82;

WAYCROSS       CLEAR     78  78  99 CALM      29.94S
JESUP          FAIR      79  77  94 CALM      29.93F
BAXLEY         FAIR      77  75  94 CALM      29.93F
BRUNSWICK      PTCLDY    73  73 100 CALM      29.93S
SAINT SIMONS   PTCLDY    76  75  97 CALM      29.92F
6HR MIN TEMP:  76; 6HR MAX TEMP:  79; 6HR PCP:  0.03;


$$

SCZ027-028-034-036>038-045-046-048>050-GAZ119-141-040700-
...LAKE AND SUPPLEMENTAL COASTAL OBSERVATIONS...

STATION/POSITION TIME  TEMP    WIND        PRES    WAVE   SWELL
                       AIR SEA DIR/SP/G            HT/PER HT/PER/DIR
                 (UTC) (F)     (DEG/KT/KT) (MB)    (FT/S) (FT/S/D)
UPR LAKE MARION  NOT AVBL
WINYAH BAY       NOT AVBL
LAKE MURRAY      0500   79      CALM  /  2 1012.5S
ACE BASIN NERRS  NOT AVBL
FORT PULASKI     0500   81 83  210/  4/  6 1013.7S
SAPELO ISLAND    0500   80     210/  5     1013.0S

$$

ANZ835-935-AMZ111-154-330-350-352-354-370-450-454-472-040700-
...C-MAN AND BUOY OBSERVATIONS...

STATION/POSITION TIME  TEMP    WIND        PRES    WAVE   SWELL
                       AIR SEA DIR/SP/G            HT/PER HT/PER/DIR
                 (UTC) (F)     (DEG/KT/KT) (MB)    (FT/S) (FT/S/D)
BUOY 41004       0550   81 84  190/  6/  8 1012.8F   1/ 8   2/ 8
BUOY 41008       0550   82 84  230/  2/  2 1013.4F   1/ 8   2/100/ 8
FOLLY BEACH CMAN 0500   81     180/  7/  8 1013.4R
CAPERS NEARSHORE NOT AVBL
FRIPP NEARSHORE  0500   82     220/  8/ 10 1012.5F


STATION/POSITION TIME  TEMP    WIND        PRES    WAVE   SWELL
                       AIR SEA DIR/SP/G            HT/PER HT/PER/DIR
                 (UTC) (F)     (DEG/KT/KT) (MB)    (FT/S) (FT/S/D)
5E ST. MARYS GA  0521      85                N/A     1/ 8
FRYING PAN BUOY  0550   82 81  260/  4/  6 1013.2S   1/ 4   2/120/ 7
BUOY 41025       0550   81 85  320/  6/  8 1012.5F   1/12   2/210/12
CAPE LOOKOUT NC  0500   81     320/  4/  4 1012.4S
BUOY 41002       0550   82 84  270/  4/  4 1012.7F   2/ 4   2/270/ 4
BUOY 41010       0520   85 86  240/ 10/ 12 1013.2F
ST AUGUSTINE FL  0600   79 84  260/  2/  4 1014.0F


$$


USA.gov is the U.S. government's official web portal to all federal, state and local government web resources and services.